EHI
0 0 0 0 0 0 0 0 0 0 0 0 0 0 0 0 0 0 0 0 0 0 0 1 9 28 49 55 45 36 32 28 23 17 11 5 1 0 0 0 0 0 0 0
0 0 0 0 0 0 0 0 0 0 0 0 0 0 0 0 0 0 0 0 0 0 1 4 14 33 51 54 45 39 42 46 41 32 22 11 3 0 0 0 0 0 0 0
0 0 0 0 0 0 0 0 0 0 0 0 0 0 0 0 0 0 0 0 0 1 5 12 25 39 49 51 48 48 58 67 62 49 35 20 8 3 1 0 0 0 0 0
0 0 0 0 0 0 0 0 0 0 0 0 0 0 0 0 0 0 0 0 0 2 8 16 24 31 36 40 41 45 56 64 61 50 39 27 17 10 5 2 1 1 0 0
0 0 0 0 0 0 0 0 0 0 0 0 0 0 0 0 0 0 0 0 0 3 7 11 12 14 17 20 22 26 31 36 36 33 30 25 20 17 10 5 3 2 1 1
0 0 0 0 0 0 0 0 0 0 0 0 0 0 0 0 0 0 0 0 0 2 4 4 3 3 4 5 6 7 9 11 11 12 15 16 15 15 13 9 6 2 1 2
0 0 0 0 0 0 0 0 0 0 0 0 0 0 0 0 0 0 0 0 0 1 1 1 1 1 0 1 1 1 1 2 1 2 4 7 8 9 9 9 7 3 1 2
0 0 0 0 0 0 0 0 0 0 0 0 0 0 0 0 0 0 0 0 0 0 0 0 0 0 0 0 0 0 0 0 0 0 1 2 3 3 3 4 5 3 1 1
0 0 0 0 0 0 0 0 0 0 0 0 0 0 0 0 0 0 0 0 0 0 0 0 0 0 0 0 0 0 0 0 0 0 0 0 1 1 0 1 1 1 2 2
0 0 0 0 0 0 0 0 0 0 0 0 0 0 0 0 0 0 0 0 0 0 0 0 0 0 0 0 0 0 0 0 0 0 0 0 0 0 0 0 0 0 1 2
0 0 0 0 0 0 0 0 0 0 0 0 0 0 0 0 0 0 0 0 0 0 0 0 0 0 0 0 0 0 0 0 0 0 0 0 0 0 0 0 0 0 0 1
0 0 0 0 0 0 0 0 0 0 0 0 0 0 0 0 0 0 0 0 0 0 0 0 0 0 0 0 0 0 0 0 0 0 0 0 0 0 0 0 0 0 0 0
0 0 0 0 0 0 0 0 0 0 0 0 0 0 0 0 0 0 0 0 0 0 0 0 0 0 0 0 0 0 0 0 0 0 0 0 0 0 0 0 0 0 0 0
0 0 0 0 0 0 0 0 0 0 0 0 0 0 0 0 0 0 0 0 0 0 0 0 0 0 0 0 0 0 0 0 0 0 0 0 0 0 0 0 0 0 0 0
0 0 0 0 0 0 0 0 0 0 0 0 0 0 0 0 0 0 0 0 0 0 0 0 0 0 0 0 0 0 0 0 0 0 0 0 0 0 0 0 0 0 0 0
0 0 0 0 0 0 0 0 0 0 0 0 0 0 0 0 0 0 0 0 0 0 0 0 0 0 0 0 0 0 0 0 0 0 0 0 0 0 0 0 0 0 0 0
0 0 0 0 0 0 0 0 0 0 0 0 0 0 0 0 0 0 0 0 0 0 0 0 0 0 0 0 0 0 0 0 0 0 0 0 0 0 0 0 0 0 0 0
0 0 0 0 0 0 0 0 0 0 0 0 0 0 0 0 0 0 0 0 0 0 0 0 0 0 0 0 0 0 0 0 0 0 0 0 0 0 0 0 0 0 0 0
0 0 0 0 0 0 0 0 0 0 0 0 0 0 0 0 0 0 0 0 0 0 0 0 0 0 0 0 0 0 0 0 0 0 0 0 0 0 0 0 0 0 0 0
0 0 0 0 0 0 0 0 0 0 0 0 0 0 0 0 0 0 0 0 0 0 0 0 0 0 0 0 0 0 0 0 0 0 0 0 0 0 0 0 0 0 0 0
0 0 0 0 0 0 0 0 0 0 0 0 0 0 0 0 0 0 0 0 0 0 0 0 0 0 0 0 0 0 0 0 0 0 0 0 0 0 0 0 0 0 0 0
0 0 0 0 0 0 0 0 0 0 0 0 0 0 0 0 0 0 0 0 0 0 0 0 0 0 0 0 0 0 0 0 0 0 0 0 0 0 0 0 0 0 0 0
0 0 0 0 0 0 0 0 0 0 0 0 0 0 0 0 0 0 0 0 0 0 0 0 0 0 0 0 0 0 0 0 0 0 0 0 0 0 0 0 0 0 0 0
0 0 0 0 0 0 0 0 0 0 0 0 0 0 0 0 0 0 0 0 0 0 0 0 0 0 0 0 0 0 0 0 0 0 0 0 0 0 0 0 0 0 0 0
0 0 0 0 0 0 0 0 0 0 0 0 0 0 0 0 0 0 0 0 0 0 0 0 0 0 0 0 0 0 0 0 0 0 0 0 0 0 0 0 0 0 0 0
0 0 0 0 0 0 0 0 0 0 0 0 0 0 0 0 0 0 0 0 0 0 0 0 0 0 0 0 0 0 0 0 0 0 0 0 0 0 0 0 0 0 0 0
0 0 0 0 0 0 0 0 0 0 0 0 0 0 0 0 0 0 0 0 0 0 0 0 0 0 0 0 0 0 0 0 0 0 0 0 0 0 0 0 0 0 0 0
Wind_Speed
10 11 11 12 11 10 11 10 8 8 10 11 15 18 19 18 17 14 13 11 9 7 6 6 8 9 9 9 9 9 9 8 8 7 7 7 7 7 8 8 8 9 8 8
13 10 11 13 10 8 7 5 5 7 7 14 19 17 16 15 12 11 10 9 7 5 3 4 6 7 7 7 7 8 8 7 6 6 6 7 7 8 8 8 8 8 9 9
12 11 12 4 7 6 11 12 9 9 13 19 20 19 15 14 11 8 7 6 3 2 3 3 5 6 6 5 5 6 6 5 6 7 7 7 7 7 7 8 9 9 10 9
8 9 5 8 12 8 8 14 15 13 15 17 19 15 8 14 14 11 8 6 6 7 8 7 7 6 6 5 3 2 2 3 5 5 6 7 7 8 8 8 7 8 8 8
5 6 4 8 14 15 6 7 18 19 20 22 23 7 10 19 17 12 9 8 8 8 9 10 9 8 7 7 5 4 2 1 2 4 6 7 8 8 8 8 7 8 8 8
4 5 2 10 23 22 7 2 20 21 21 22 22 13 12 19 15 9 8 7 7 8 10 10 9 8 9 8 7 6 5 3 2 1 4 6 7 7 7 7 8 8 8 8
6 4 5 13 24 16 5 10 20 20 20 19 16 13 16 16 8 5 6 6 6 7 8 8 8 8 9 9 9 7 6 5 4 2 1 3 4 5 6 7 7 8 9 8
6 6 5 13 15 10 10 15 18 19 19 19 18 18 15 11 4 2 3 4 4 6 7 7 7 8 9 8 6 6 6 6 6 5 3 2 1 3 4 6 7 8 8 8
4 3 4 7 8 10 13 16 18 20 20 19 19 18 16 10 4 1 1 3 3 5 6 5 5 6 7 6 5 5 6 6 6 6 5 4 2 2 2 4 5 6 7 7
5 4 8 9 6 12 15 17 19 20 20 18 18 18 16 10 5 4 3 3 3 3 3 4 3 4 4 4 4 5 5 6 5 6 6 6 4 2 1 2 3 4 5 5
8 9 11 7 13 16 17 18 19 19 19 17 17 17 15 11 6 5 5 4 4 3 2 1 2 3 3 3 3 4 4 4 4 5 5 5 5 5 4 4 3 1 1 2
7 11 12 16 16 17 17 18 19 19 19 17 16 16 15 11 6 6 6 6 5 5 4 2 3 3 3 2 2 4 4 4 3 3 3 3 4 5 10 9 9 9 8 5
9 13 14 16 16 16 16 18 18 18 17 17 15 14 13 10 6 6 7 7 7 6 5 4 3 2 2 1 1 3 3 2 2 2 2 2 2 3 4 6 9 10 9 8
8 10 12 14 16 16 17 17 17 16 15 13 13 12 11 10 6 6 8 8 8 7 6 5 4 2 1 2 1 1 2 2 1 1 1 1 1 1 2 3 4 4 7 8
8 11 14 15 15 15 15 15 16 14 14 13 12 11 11 11 8 7 8 8 8 8 7 6 5 3 3 3 2 1 1 1 1 1 1 2 2 2 2 3 4 4 3 4
13 13 12 13 14 15 15 16 15 15 15 15 13 12 12 11 9 6 7 9 10 10 9 7 6 5 5 5 4 2 2 3 2 1 1 2 2 3 3 3 4 3 3 3
13 14 15 16 16 16 16 15 15 15 15 15 14 14 13 11 7 5 7 10 10 9 7 7 6 6 7 6 5 3 3 4 3 1 1 2 2 3 3 3 3 4 4 3
11 13 14 15 15 16 16 16 15 15 15 15 15 13 11 10 8 6 7 9 9 8 7 7 6 7 8 7 5 4 4 3 3 2 1 1 2 3 3 4 4 4 3 3
12 13 14 14 14 14 15 15 15 15 15 14 14 13 11 10 8 6 6 8 10 10 8 8 8 9 9 8 6 5 4 4 3 3 3 3 3 3 3 3 3 4 3 2
11 12 13 14 14 13 14 14 15 14 13 14 13 12 11 9 6 5 6 8 8 5 6 9 11 9 9 9 7 5 5 5 4 4 3 3 3 3 4 4 3 4 3 3
11 12 13 14 14 13 13 14 13 14 14 13 13 12 11 10 7 5 6 6 6 6 7 10 9 8 8 9 9 6 5 5 4 4 4 4 4 4 4 4 4 3 3 3
11 12 13 13 14 14 13 13 13 14 14 13 13 12 11 10 7 6 7 5 4 9 8 8 8 9 10 10 7 6 6 5 4 4 4 4 4 4 4 4 4 3 3 3
11 12 13 13 14 14 14 12 13 13 13 13 13 12 11 10 7 6 5 4 6 10 8 8 11 16 14 9 7 6 6 6 5 4 4 4 4 3 4 4 4 4 3 3
12 12 12 13 13 13 13 13 13 12 13 12 11 11 11 9 6 5 4 4 8 11 7 11 18 18 12 7 7 6 6 5 5 4 4 4 4 4 4 4 3 3 3 4
12 12 12 13 12 10 12 13 13 12 13 10 12 11 9 6 6 4 3 5 9 10 9 14 19 17 10 7 7 7 6 5 5 5 4 4 4 3 4 4 4 4 4 4
11 10 10 11 10 9 9 9 9 10 10 11 11 10 8 6 5 3 3 6 11 10 10 11 12 11 8 7 7 7 6 7 6 5 4 4 5 4 4 4 5 4 4 4
11 10 9 9 8 8 8 8 9 10 10 11 12 11 9 7 5 2 3 6 8 9 9 10 10 9 8 8 7 7 6 6 6 5 5 4 4 4 4 5 5 5 5 5
Wind_Direction
307 307 305 299 294 286 276 276 284 310 314 331 338 324 312 304 298 291 285 282 279 274 263 228 210 198 188 183 182 187 196 203 206 207 203 210 212 213 214 215 218 213 211 213
299 300 302 294 294 278 269 288 309 326 333 348 327 321 317 315 308 294 290 291 290 284 262 211 191 181 174 178 183 192 201 208 206 213 204 208 213 217 212 212 218 217 218 217
294 304 294 278 25 50 78 55 28 9 345 334 332 332 338 345 340 325 320 330 345 26 83 122 137 150 159 167 172 196 205 206 208 212 209 209 210 210 207 210 216 218 218 216
281 287 251 82 49 30 100 62 31 9 353 343 331 316 24 16 360 356 5 28 56 76 84 86 93 101 106 114 138 182 213 220 216 220 216 211 209 206 207 211 206 214 217 213
276 267 238 73 14 343 292 65 20 1 354 350 341 335 44 21 9 9 26 50 65 74 82 79 79 84 90 88 83 74 46 334 253 228 223 216 212 209 207 207 205 209 208 208
318 288 51 16 339 323 261 86 6 354 352 351 351 359 357 351 353 16 40 57 70 78 80 77 76 82 85 80 71 57 39 21 3 271 237 228 223 217 209 209 210 209 208 210
356 313 60 5 340 348 45 355 335 339 343 344 345 330 317 326 347 22 42 51 66 77 77 77 82 84 80 71 60 47 38 37 34 18 296 250 229 217 210 208 210 211 208 206
358 348 351 348 352 2 336 324 326 330 334 335 330 327 329 333 338 28 60 61 69 84 84 79 78 80 77 68 57 47 40 37 33 28 22 31 210 203 204 201 201 202 200 193
336 317 283 301 297 302 319 321 322 324 326 327 327 329 331 326 297 209 122 93 94 105 102 91 71 61 67 64 42 35 35 35 31 35 40 39 53 128 173 189 192 192 193 185
316 302 324 320 321 321 321 316 314 315 317 321 323 324 325 319 279 222 185 150 147 151 132 102 69 42 36 30 13 17 27 28 33 33 47 53 50 64 131 168 184 190 192 185
309 326 328 318 323 322 318 315 313 312 312 314 317 319 322 314 280 232 197 179 184 192 178 99 8 354 5 355 344 3 21 32 46 52 54 60 58 37 31 55 35 23 157 158
305 319 313 309 316 319 317 315 315 313 311 313 314 316 320 315 288 232 205 188 192 206 223 260 321 347 12 16 341 357 24 32 39 59 70 80 93 81 49 55 60 57 49 48
294 305 301 303 311 316 313 313 312 308 304 305 309 313 317 316 293 233 207 198 199 205 225 251 286 325 39 107 36 27 34 33 37 46 74 93 109 123 117 90 75 67 63 61
307 309 305 313 315 316 316 315 313 308 306 305 307 312 316 314 298 240 215 202 198 206 222 236 249 252 156 158 159 36 48 70 33 64 68 91 96 93 98 122 118 92 71 66
308 310 306 308 312 318 320 321 319 317 319 317 317 315 317 315 299 255 221 199 194 206 219 227 231 213 175 185 193 123 63 72 67 56 65 88 99 109 105 102 108 112 109 90
315 315 318 321 323 326 328 329 325 322 321 318 316 316 316 311 299 260 216 198 198 206 213 219 223 199 179 186 185 170 117 74 20 25 105 112 124 124 115 115 113 110 100 89
317 322 328 330 328 327 327 327 323 319 317 314 313 312 309 306 295 251 216 206 210 214 213 215 211 180 177 185 189 182 162 142 168 230 51 71 90 101 110 115 111 102 90 72
311 310 313 318 320 320 321 324 323 321 317 314 310 305 302 302 298 269 223 206 207 212 214 209 192 174 175 178 185 184 177 170 175 160 135 113 108 116 119 123 122 115 114 120
309 310 313 316 318 315 317 321 323 321 319 317 312 305 299 295 292 272 225 205 206 211 207 191 171 177 170 168 173 183 180 175 178 170 156 144 157 131 124 119 120 120 119 121
310 313 314 317 319 318 318 321 322 322 323 322 315 307 299 293 291 262 223 217 217 211 174 162 170 173 164 163 178 179 177 179 173 166 162 160 152 141 131 131 131 131 130 124
315 316 316 318 321 320 320 322 324 326 327 325 319 312 304 299 290 259 227 224 206 182 159 157 165 160 159 157 176 174 173 170 166 164 162 163 156 152 150 145 143 140 133 130
316 315 316 316 318 321 322 322 325 327 327 327 323 317 311 303 292 262 232 232 177 160 161 164 162 149 150 158 170 167 170 166 160 159 162 164 167 167 159 149 145 142 141 128
312 312 313 315 316 316 317 321 327 327 328 328 325 323 317 307 295 271 246 201 173 169 169 159 145 143 152 165 162 164 167 164 161 162 165 169 170 166 153 147 141 137 129 114
306 307 309 310 311 312 317 323 324 324 326 326 324 323 317 307 292 259 260 164 160 160 165 145 146 151 160 163 160 165 165 160 157 158 162 168 166 160 147 138 127 117 115 109
297 299 303 308 310 311 313 316 319 323 328 330 331 330 324 309 295 289 251 180 157 159 150 152 154 157 165 162 164 165 162 159 158 158 163 164 157 153 143 138 135 131 120 106
290 292 294 296 298 299 303 310 314 321 328 330 332 331 326 319 301 274 222 173 161 162 152 152 159 167 169 162 164 164 159 154 158 165 165 159 153 148 140 135 132 124 115 109
282 282 282 285 290 295 301 305 308 317 323 327 327 324 322 318 307 261 191 164 162 165 157 156 159 165 159 159 163 164 161 159 161 161 159 158 155 150 144 141 134 126 119 116